Cushing, OK

6:51 PM CDT on May 27, 2017 (GMT -0500)
Cushing Municipal

Weather History for KCUH - October, 2012

Change the Weather History Date:

Thursday, October 18, 2012

  Actual Average Record
Temperature  
Mean Temperature 55 °F -  
Max Temperature 69 °F 71 °F 93 °F (2005)
Min Temperature 41 °F 46 °F 31 °F (1976)
Degree Days  
Heating Degree Days 10    
Growing Degree Days 5 (Base 50)    
Moisture  
Dew Point 33 °F    
Average Humidity 45    
Maximum Humidity 76    
Minimum Humidity 26    
Precipitation  
Precipitation 0.00 in - - ()
Sea Level Pressure  
Sea Level Pressure 29.90 in    
Wind  
Wind Speed 11 mph (WNW)    
Max Wind Speed 32 mph    
Max Gust Speed 45 mph    
Visibility 10 miles    
Events      
Averages and records for this station are not official NWS values.
T = Trace of Precipitation, MM = Missing Value Source: NWS Daily Summary

Daily Weather History Graph

Daily Weather History Graph

Search for Another Location

Airport or City:

Trip Planner

Search our weather history database for the weather conditions in past years. The results will help you decide how hot, cold, wet, or windy it might be!

Date:

Astronomy

Oct. 18, 2012 Rise Set
Actual Time 7:36 AM CDT 6:46 PM CDT
Civil Twilight 7:11 AM CDT 7:12 PM CDT
Nautical Twilight 6:41 AM CDT 7:42 PM CDT
Astronomical Twilight 6:11 AM CDT 8:12 PM CDT
Moon 11:13 AM CDT (10/18) 9:28 PM CDT (10/18)
Length of Visible Light 12h 01m
Length of Day
11h 09m
Waxing Crescent, 14% of the Moon is Illuminated
Oct 18
Waxing Crescent
Oct 21
First Quarter
Oct 29
Full
Nov 6
Last Quarter
Nov 13
New

Hourly Weather History & Observations

Time (CDT) Temp. Windchill Dew Point Humidity Pressure Visibility Wind Dir Wind Speed Gust Speed Precip Events Conditions
12:15 AM 51.8 °F - 33.8 °F 50% 29.84 in 10.0 mi WNW 6.9 mph - N/A   Clear
12:35 AM 50.0 °F - 35.6 °F 58% 29.84 in 10.0 mi West 6.9 mph - N/A   Clear
12:55 AM 48.2 °F - 33.8 °F 58% 29.85 in 10.0 mi WNW 8.1 mph - N/A   Clear
1:15 AM 50.0 °F - 35.6 °F 58% 29.85 in 10.0 mi WNW 8.1 mph - N/A   Clear
1:35 AM 46.4 °F 43.5 °F 33.8 °F 62% 29.85 in 10.0 mi WNW 5.8 mph - N/A   Clear
1:55 AM 48.2 °F - 33.8 °F 58% 29.86 in 10.0 mi NW 6.9 mph - N/A   Clear
2:15 AM 50.0 °F - 33.8 °F 54% 29.86 in 10.0 mi WNW 6.9 mph - N/A   Clear
2:35 AM 48.2 °F - 33.8 °F 58% 29.87 in 10.0 mi WNW 8.1 mph - N/A   Clear
2:55 AM 50.0 °F - 33.8 °F 54% 29.88 in 10.0 mi WNW 8.1 mph - N/A   Clear
3:15 AM 50.0 °F - 33.8 °F 54% 29.88 in 10.0 mi WNW 6.9 mph - N/A   Clear
3:35 AM 48.2 °F - 35.6 °F 62% 29.88 in 10.0 mi WNW 6.9 mph - N/A   Clear
3:55 AM 46.4 °F 42.4 °F 35.6 °F 66% 29.88 in 10.0 mi West 8.1 mph - N/A   Clear
4:15 AM 46.4 °F 42.9 °F 35.6 °F 66% 29.88 in 10.0 mi West 6.9 mph - N/A   Clear
4:35 AM 46.4 °F 42.9 °F 35.6 °F 66% 29.88 in 10.0 mi West 6.9 mph - N/A   Clear
4:55 AM 44.6 °F 40.2 °F 35.6 °F 71% 29.89 in 10.0 mi West 8.1 mph - N/A   Clear
5:15 AM 44.6 °F 40.2 °F 35.6 °F 71% 29.89 in 10.0 mi WNW 8.1 mph - N/A   Clear
5:35 AM 44.6 °F 40.2 °F 35.6 °F 71% 29.90 in 10.0 mi West 8.1 mph - N/A   Clear
5:55 AM 42.8 °F 38.6 °F 35.6 °F 76% 29.91 in 10.0 mi West 6.9 mph - N/A   Clear
6:15 AM 42.8 °F 38.6 °F 35.6 °F 76% 29.92 in 10.0 mi West 6.9 mph - N/A   Clear
6:35 AM 42.8 °F 38.6 °F 35.6 °F 76% 29.92 in 10.0 mi West 6.9 mph - N/A   Clear
6:55 AM 42.8 °F 39.3 °F 33.8 °F 70% 29.93 in 10.0 mi West 5.8 mph - N/A   Clear
7:15 AM 41.0 °F 37.1 °F 33.8 °F 76% 29.94 in 10.0 mi West 5.8 mph - N/A   Clear
7:35 AM 41.0 °F 38.0 °F 33.8 °F 76% 29.93 in 10.0 mi West 4.6 mph - N/A   Clear
7:55 AM 41.0 °F 38.0 °F 33.8 °F 76% 29.93 in 10.0 mi West 4.6 mph - N/A   Clear
8:15 AM 42.8 °F 40.1 °F 33.8 °F 70% 29.94 in 10.0 mi West 4.6 mph - N/A   Clear
8:35 AM 44.6 °F 40.7 °F 33.8 °F 66% 29.95 in 10.0 mi West 6.9 mph - N/A   Clear
8:55 AM 48.2 °F - 33.8 °F 58% 29.95 in 10.0 mi West 5.8 mph - N/A   Clear
9:15 AM 51.8 °F - 33.8 °F 50% 29.95 in 10.0 mi WNW 6.9 mph - N/A   Clear
9:35 AM 53.6 °F - 33.8 °F 47% 29.95 in 10.0 mi WNW 6.9 mph - N/A   Clear
9:55 AM 55.4 °F - 33.8 °F 44% 29.95 in 10.0 mi WNW 11.5 mph 18.4 mph N/A   Clear
10:15 AM 59.0 °F - 32.0 °F 36% 29.95 in 10.0 mi WNW 13.8 mph 25.3 mph N/A   Clear
10:35 AM 60.8 °F - 32.0 °F 34% 29.95 in 10.0 mi NW 17.3 mph 27.6 mph N/A   Clear
10:55 AM 62.6 °F - 32.0 °F 32% 29.95 in 10.0 mi WNW 17.3 mph 26.5 mph N/A   Clear
11:15 AM 62.6 °F - 32.0 °F 32% 29.94 in 10.0 mi NW 21.9 mph 31.1 mph N/A   Clear
11:35 AM 64.4 °F - 32.0 °F 30% 29.94 in 10.0 mi WNW 24.2 mph 36.8 mph N/A   Clear
11:55 AM 64.4 °F - 32.0 °F 30% 29.94 in 10.0 mi NW 25.3 mph 35.7 mph N/A   Clear
12:15 PM 64.4 °F - 32.0 °F 30% 29.93 in 10.0 mi WNW 23.0 mph 31.1 mph N/A   Clear
12:35 PM 66.2 °F - 32.0 °F 28% 29.94 in 10.0 mi NW 23.0 mph 41.4 mph N/A   Clear
12:55 PM 66.2 °F - 32.0 °F 28% 29.93 in 10.0 mi NW 24.2 mph 33.4 mph N/A   Clear
1:15 PM 66.2 °F - 33.8 °F 30% 29.92 in 10.0 mi WNW 25.3 mph 35.7 mph N/A   Clear
1:35 PM 68.0 °F - 33.8 °F 28% 29.92 in 10.0 mi WNW 21.9 mph 39.1 mph N/A   Clear
1:55 PM 68.0 °F - 33.8 °F 28% 29.91 in 10.0 mi WNW 28.8 mph 38.0 mph N/A   Clear
2:15 PM 68.0 °F - 33.8 °F 28% 29.90 in 10.0 mi WNW 26.5 mph 40.3 mph N/A   Clear
2:35 PM 68.0 °F - 33.8 °F 28% 29.89 in 10.0 mi WNW 29.9 mph 41.4 mph N/A   Clear
2:55 PM 68.0 °F - 33.8 °F 28% 29.88 in 10.0 mi WNW 28.8 mph 44.9 mph N/A   Clear
3:15 PM 68.0 °F - 33.8 °F 28% 29.87 in 10.0 mi WNW 24.2 mph 42.6 mph N/A   Clear
3:35 PM 69.8 °F - 35.6 °F 28% 29.87 in 10.0 mi WNW 18.4 mph 33.4 mph N/A   Clear
3:55 PM 69.8 °F - 33.8 °F 27% 29.87 in 10.0 mi WNW 27.6 mph 42.6 mph N/A   Scattered Clouds
4:15 PM 69.8 °F - 33.8 °F 27% 29.87 in 10.0 mi WNW 26.5 mph 36.8 mph N/A   Overcast
4:35 PM 69.8 °F - 33.8 °F 27% 29.87 in 10.0 mi NW 25.3 mph 35.7 mph N/A   Overcast
4:55 PM 68.0 °F - 33.8 °F 28% 29.86 in 10.0 mi WNW 32.2 mph 40.3 mph N/A   Overcast
5:15 PM 68.0 °F - 32.0 °F 26% 29.86 in 10.0 mi WNW 20.7 mph 32.2 mph N/A   Overcast
5:35 PM 68.0 °F - 32.0 °F 26% 29.86 in 10.0 mi WNW 24.2 mph 38.0 mph N/A   Overcast
5:55 PM 68.0 °F - 32.0 °F 26% 29.86 in 10.0 mi NW 21.9 mph 31.1 mph N/A   Overcast
6:15 PM 66.2 °F - 32.0 °F 28% 29.85 in 7.0 mi WNW 19.6 mph 29.9 mph N/A   Overcast
6:35 PM 66.2 °F - 32.0 °F 28% 29.86 in 10.0 mi WNW 18.4 mph - N/A   Overcast
6:55 PM 64.4 °F - 32.0 °F 30% 29.86 in 10.0 mi WNW 11.5 mph 19.6 mph N/A   Overcast
7:15 PM 64.4 °F - 32.0 °F 30% 29.87 in 10.0 mi WNW 12.7 mph 18.4 mph N/A   Overcast
7:35 PM 62.6 °F - 32.0 °F 32% 29.87 in 10.0 mi NW 11.5 mph 18.4 mph N/A   Overcast
7:55 PM 62.6 °F - 32.0 °F 32% 29.89 in 7.0 mi NW 10.4 mph - N/A   Overcast
8:15 PM 62.6 °F - 32.0 °F 32% 29.89 in 7.0 mi NW 8.1 mph 16.1 mph N/A   Overcast
8:35 PM 60.8 °F - 32.0 °F 34% 29.89 in 7.0 mi WNW 11.5 mph - N/A   Overcast
8:55 PM 60.8 °F - 32.0 °F 34% 29.89 in 7.0 mi WNW 5.8 mph - N/A   Overcast
9:15 PM 59.0 °F - 32.0 °F 36% 29.90 in 7.0 mi West 4.6 mph - N/A   Overcast
9:35 PM 55.4 °F - 32.0 °F 41% 29.90 in 10.0 mi West 3.5 mph - N/A   Overcast
9:55 PM 55.4 °F - 32.0 °F 41% 29.90 in 7.0 mi West 5.8 mph - N/A   Overcast
10:15 PM 53.6 °F - 32.0 °F 44% 29.90 in 10.0 mi West 4.6 mph - N/A   Overcast
10:35 PM 55.4 °F - 32.0 °F 41% 29.90 in 7.0 mi West 4.6 mph - N/A   Overcast
10:55 PM 55.4 °F - 32.0 °F 41% 29.90 in 7.0 mi West 6.9 mph - N/A   Overcast